sat.trackr.live / text

‹ back to catalog

ONEWEB-0178

NORAD 48075 · 2021-025AK

PAYLOAD ACTIVE UNKNOWN

§ Identity

Operator
Country
UK
Launch date
2021-03-25
Launch site
VOSTO
Launch vehicle
Mass (kg)
RCS (m²)

Purposes: comms

External: N2YO · Heavens-Above · Gunter

§ Orbital elements

Epoch: 2026-09-19T21:09:24.770016Z

Period
109.63 min
Inclination
87.8911°
Eccentricity
0.0001725
Mean motion
13.13469589 rev/d
Perigee alt
1,208.5 km
Apogee alt
1,211.1 km
Semi-major
7,587.9 km
B*
2.1829e-4
RAAN
301.3896°
Arg perigee
88.5433°
Mean anomaly
271.5893°
Rev number
26,615

§ Raw data

ONEWEB-01781 48075U 21025AK  26262.88153669  .00000092  00000+0  21829-3 0  99932 48075  87.8911 301.3896 0001725  88.5433 271.5893 13.13469589266150

JSON: /api/v1/satellites/48075 · /tle

For live sub-satellite position, see the globe view (requires WebGL).

§ Visibility from observer

Set your observer location to see the next 7 days of passes ≥ 10°. The values pass through the URL so the page stays shareable.

No JS? Fill the form by hand. The geolocation button needs JavaScript.